| time (UTC) | temp C | wind direction | speed KPH | gust KPH | rain 1hr cm | rain 24hr cm | rain mn cm | humidity % | barometer mb |
| 20260509174041 | 17 | 145 | 1.6 | 6.4 | 0.00 | 0.00 | 0.00 | 70 | 1038.0 |
| 20260509173308 | 17 | 201 | 1.6 | 6.4 | 0.00 | 0.00 | 0.00 | 70 | 1038.5 |
| 20260509172805 | 17 | 73 | 1.6 | 3.2 | 0.00 | 0.00 | 0.00 | 71 | 1038.5 |
| 20260509172253 | 17 | 126 | 1.6 | 11.3 | 0.00 | 0.00 | 0.00 | 72 | 1038.5 |
| 20260509171752 | 17 | 91 | 1.6 | 11.3 | 0.00 | 0.00 | 0.00 | 70 | 1038.5 |
| 20260509171246 | 17 | 101 | 1.6 | 9.7 | 0.00 | 0.00 | 0.00 | 71 | 1038.5 |
| 20260509170740 | 17 | 182 | 1.6 | 9.7 | 0.00 | 0.00 | 0.00 | 73 | 1038.5 |
| 20260509170233 | 17 | 30 | 1.6 | 8.0 | 0.00 | 0.00 | 0.00 | 73 | 1039.0 |
| 20260509165723 | 16 | 82 | 1.6 | 8.0 | 0.00 | 0.00 | 0.00 | 72 | 1039.0 |
| 20260509165221 | 16 | 104 | 1.6 | 6.4 | 0.00 | 0.00 | 0.00 | 72 | 1039.0 |
| 20260509164715 | 16 | 112 | 1.6 | 6.4 | 0.00 | 0.00 | 0.00 | 73 | 1038.9 |
| 20260509164209 | 16 | 125 | 1.6 | 8.0 | 0.00 | 0.00 | 0.00 | 73 | 1038.9 |
| 20260509163702 | 16 | 78 | 1.6 | 8.0 | 0.00 | 0.00 | 0.00 | 72 | 1038.9 |
| 20260509163157 | 16 | 107 | 1.6 | 8.0 | 0.00 | 0.00 | 0.00 | 74 | 1038.5 |
| 20260509162651 | 16 | 329 | 1.6 | 8.0 | 0.00 | 0.00 | 0.00 | 74 | 1038.5 |
| 20260509162145 | 17 | 301 | 1.6 | 4.8 | 0.00 | 0.00 | 0.00 | 71 | 1038.5 |
| 20260509161639 | 17 | 308 | 1.6 | 6.4 | 0.00 | 0.00 | 0.00 | 70 | 1038.4 |
| 20260509161347 | 17 | 300 | 1.6 | 8.0 | 0.00 | 0.00 | 0.00 | 71 | 1038.4 |
| 20260509160627 | 17 | 50 | 1.6 | 8.0 | 0.00 | 0.00 | 0.00 | 70 | 1038.6 |
| 20260509160121 | 17 | 263 | 1.6 | 8.0 | 0.00 | 0.00 | 0.00 | 74 | 1038.6 |
| 20260509155615 | 17 | 78 | 1.6 | 6.4 | 0.00 | 0.00 | 0.00 | 72 | 1038.6 |
| 20260509155108 | 17 | 38 | 1.6 | 6.4 | 0.00 | 0.00 | 0.00 | 71 | 1038.7 |
| 20260509154602 | 17 | 269 | 0.0 | 3.2 | 0.00 | 0.00 | 0.00 | 68 | 1038.7 |
| 20260509154057 | 17 | 273 | 1.6 | 4.8 | 0.00 | 0.00 | 0.00 | 69 | 1038.7 |
| 20260509153546 | 17 | 128 | 1.6 | 8.0 | 0.00 | 0.00 | 0.00 | 68 | 1038.7 |
| 20260509153045 | 17 | 253 | 1.6 | 8.0 | 0.00 | 0.00 | 0.00 | 70 | 1038.7 |
| 20260509152539 | 17 | 153 | 3.2 | 8.0 | 0.00 | 0.00 | 0.00 | 69 | 1038.7 |
| 20260509152300 | 17 | 34 | 3.2 | 8.0 | 0.00 | 0.00 | 0.00 | 72 | 1038.7 |
| 20260509151527 | 17 | 76 | 1.6 | 8.0 | 0.00 | 0.00 | 0.00 | 70 | 1038.7 |
| 20260509151017 | 17 | 171 | 1.6 | 4.8 | 0.00 | 0.00 | 0.00 | 72 | 1038.7 |
| 20260509150515 | 16 | 97 | 1.6 | 4.8 | 0.00 | 0.00 | 0.00 | 70 | 1038.6 |
| 20260509150009 | 16 | 273 | 1.6 | 9.7 | 0.00 | 0.00 | 0.00 | 70 | 1038.6 |
| 20260509145721 | 16 | 326 | 1.6 | 9.7 | 0.00 | 0.00 | 0.00 | 71 | 1038.6 |
| 20260509144957 | 16 | 279 | 1.6 | 8.0 | 0.00 | 0.00 | 0.00 | 70 | 1038.7 |
| 20260509144451 | 16 | 81 | 1.6 | 6.4 | 0.00 | 0.00 | 0.00 | 71 | 1038.7 |
| 20260509143945 | 16 | 128 | 1.6 | 6.4 | 0.00 | 0.00 | 0.00 | 73 | 1038.7 |
| 20260509143443 | 16 | 51 | 0.0 | 3.2 | 0.00 | 0.00 | 0.00 | 73 | 1038.8 |
| 20260509142941 | 15 | 205 | 0.0 | 3.2 | 0.00 | 0.00 | 0.00 | 73 | 1038.8 |
| 20260509142702 | 15 | 117 | 1.6 | 4.8 | 0.00 | 0.00 | 0.00 | 74 | 1038.8 |
| 20260509142421 | 15 | 92 | 1.6 | 4.8 | 0.00 | 0.00 | 0.00 | 73 | 1038.9 |
| 20260509141439 | 15 | 290 | 0.0 | 3.2 | 0.00 | 0.00 | 0.00 | 74 | 1038.9 |
| 20260509141424 | 15 | 116 | 0.0 | 1.6 | 0.00 | 0.00 | 0.00 | 75 | 1038.9 |
| 20260509140437 | 15 | 137 | 0.0 | 1.6 | 0.00 | 0.00 | 0.00 | 75 | 1038.9 |
| 20260509140424 | 15 | 125 | 0.0 | 0.0 | 0.00 | 0.00 | 0.00 | 76 | 1038.9 |
| 20260509135658 | 15 | 125 | 0.0 | 0.0 | 0.00 | 0.00 | 0.00 | 74 | 1038.9 |
| 20260509134937 | 15 | 125 | 0.0 | 1.6 | 0.00 | 0.00 | 0.00 | 74 | 1038.8 |
| 20260509134436 | 14 | 125 | 0.0 | 1.6 | 0.00 | 0.00 | 0.00 | 75 | 1038.8 |
| 20260509133930 | 14 | 126 | 0.0 | 1.6 | 0.00 | 0.00 | 0.00 | 76 | 1038.8 |
| 20260509133421 | 14 | 126 | 0.0 | 1.6 | 0.00 | 0.00 | 0.00 | 76 | 1038.6 |
| 20260509133142 | 14 | 124 | 0.0 | 1.6 | 0.00 | 0.00 | 0.00 | 76 | 1038.6 |
| 20260509132420 | 13 | 124 | 0.0 | 1.6 | 0.00 | 0.00 | 0.00 | 77 | 1038.6 |
| 20260509131921 | 13 | 96 | 0.0 | 1.6 | 0.00 | 0.00 | 0.00 | 79 | 1038.6 |
| 20260509131910 | 13 | 96 | 0.0 | 0.0 | 0.00 | 0.00 | 0.00 | 78 | 1038.6 |
| 20260509130921 | 13 | 96 | 0.0 | 0.0 | 0.00 | 0.00 | 0.00 | 78 | 1038.6 |
| 20260509130421 | 13 | 96 | 0.0 | 0.0 | 0.00 | 0.00 | 0.00 | 76 | 1038.7 |
| 20260509130145 | 13 | 96 | 0.0 | 3.2 | 0.00 | 0.00 | 0.00 | 75 | 1038.7 |
| 20260509125421 | 13 | 94 | 0.0 | 3.2 | 0.00 | 0.00 | 0.00 | 76 | 1038.7 |
| 20260509125138 | 13 | 188 | 0.0 | 1.6 | 0.00 | 0.00 | 0.00 | 78 | 1038.9 |
| 20260509124403 | 13 | 229 | 0.0 | 0.0 | 0.00 | 0.00 | 0.00 | 81 | 1038.9 |
| 20260509123850 | 13 | 229 | 0.0 | 1.6 | 0.00 | 0.00 | 0.00 | 80 | 1038.9 |
| 20260509123341 | 13 | 229 | 0.0 | 1.6 | 0.00 | 0.00 | 0.00 | 78 | 1038.8 |
| 20260509122830 | 13 | 156 | 0.0 | 0.0 | 0.00 | 0.00 | 0.00 | 80 | 1038.8 |
| 20260509122318 | 13 | 156 | 0.0 | 0.0 | 0.00 | 0.00 | 0.00 | 80 | 1038.8 |
| 20260509121818 | 13 | 156 | 0.0 | 1.6 | 0.00 | 0.00 | 0.00 | 79 | 1038.6 |
| 20260509121311 | 13 | 156 | 0.0 | 1.6 | 0.00 | 0.00 | 0.00 | 79 | 1038.6 |
| 20260509120805 | 13 | 156 | 0.0 | 0.0 | 0.00 | 0.00 | 0.00 | 82 | 1038.6 |
| 20260509120254 | 13 | 156 | 0.0 | 0.0 | 0.00 | 0.00 | 0.00 | 81 | 1038.9 |
| 20260509115752 | 13 | 156 | 0.0 | 3.2 | 0.00 | 0.00 | 0.00 | 80 | 1038.9 |
| 20260509115246 | 13 | 156 | 0.0 | 3.2 | 0.00 | 0.00 | 0.00 | 78 | 1038.9 |
| 20260509114741 | 13 | 81 | 0.0 | 0.0 | 0.00 | 0.00 | 0.00 | 81 | 1038.6 |
| 20260509114234 | 12 | 53 | 0.0 | 0.0 | 0.00 | 0.00 | 0.00 | 79 | 1038.6 |
| 20260509113955 | 12 | 53 | 0.0 | 0.0 | 0.00 | 0.00 | 0.00 | 78 | 1038.6 |
| 20260509113218 | 12 | 53 | 0.0 | 0.0 | 0.00 | 0.00 | 0.00 | 78 | 1038.6 |
| 20260509112930 | 12 | 53 | 0.0 | 1.6 | 0.00 | 0.00 | 0.00 | 78 | 1038.6 |
| 20260509112439 | 12 | 53 | 0.0 | 1.6 | 0.00 | 0.00 | 0.00 | 79 | 1038.6 |
| 20260509111704 | 12 | 53 | 0.0 | 1.6 | 0.00 | 0.00 | 0.00 | 78 | 1038.6 |
| 20260509111158 | 12 | 53 | 0.0 | 1.6 | 0.00 | 0.00 | 0.00 | 77 | 1038.6 |
| 20260509110652 | 12 | 21 | 0.0 | 0.0 | 0.00 | 0.00 | 0.00 | 73 | 1038.6 |
| 20260509110146 | 12 | 21 | 0.0 | 0.0 | 0.00 | 0.00 | 0.00 | 73 | 1038.5 |
| 20260509105641 | 12 | 21 | 0.0 | 0.0 | 0.00 | 0.00 | 0.00 | 73 | 1038.5 |
| 20260509105129 | 12 | 21 | 0.0 | 0.0 | 0.00 | 0.00 | 0.00 | 74 | 1038.5 |
| 20260509104700 | 12 | 21 | 0.0 | 1.6 | 0.00 | 0.00 | 0.00 | 73 | 1038.4 |
| 20260509103616 | 13 | 21 | 0.0 | 1.6 | 0.00 | 0.00 | 0.00 | 69 | 1038.4 |
| 20260509103111 | 13 | 262 | 0.0 | 1.6 | 0.00 | 0.00 | 0.00 | 69 | 1038.4 |
| 20260509102604 | 13 | 21 | 0.0 | 0.0 | 0.00 | 0.00 | 0.00 | 66 | 1038.4 |
| 20260509102059 | 13 | 263 | 0.0 | 0.0 | 0.00 | 0.00 | 0.00 | 68 | 1038.0 |
| 20260509101547 | 13 | 263 | 0.0 | 0.0 | 0.00 | 0.00 | 0.00 | 68 | 1038.0 |
| 20260509101046 | 13 | 263 | 0.0 | 0.0 | 0.00 | 0.00 | 0.00 | 68 | 1038.0 |
| 20260509100541 | 13 | 263 | 0.0 | 0.0 | 0.00 | 0.00 | 0.00 | 64 | 1038.0 |
| 20260509100035 | 14 | 263 | 0.0 | 0.0 | 0.00 | 0.00 | 0.00 | 63 | 1038.0 |
| 20260509095529 | 14 | 263 | 0.0 | 0.0 | 0.00 | 0.00 | 0.00 | 62 | 1038.0 |
| 20260509095019 | 15 | 263 | 0.0 | 3.2 | 0.00 | 0.00 | 0.00 | 60 | 1037.9 |
| 20260509094516 | 15 | 263 | 0.0 | 3.2 | 0.00 | 0.00 | 0.00 | 58 | 1037.9 |
| 20260509094006 | 15 | 236 | 1.6 | 6.4 | 0.00 | 0.00 | 0.00 | 58 | 1037.9 |
| 20260509093504 | 15 | 240 | 1.6 | 9.7 | 0.00 | 0.00 | 0.00 | 58 | 1037.9 |
| 20260509092958 | 15 | 261 | 1.6 | 9.7 | 0.00 | 0.00 | 0.00 | 58 | 1037.9 |
| 20260509092453 | 15 | 172 | 1.6 | 4.8 | 0.00 | 0.00 | 0.00 | 59 | 1037.9 |
| 20260509091946 | 15 | 256 | 1.6 | 9.7 | 0.00 | 0.00 | 0.00 | 58 | 1037.7 |
| 20260509091440 | 15 | 159 | 1.6 | 9.7 | 0.00 | 0.00 | 0.00 | 58 | 1037.7 |
| 20260509090934 | 15 | 168 | 3.2 | 12.9 | 0.00 | 0.00 | 0.00 | 58 | 1037.7 |
| 20260509090424 | 15 | 148 | 3.2 | 12.9 | 0.00 | 0.00 | 0.00 | 58 | 1037.9 |
| 20260509090139 | 15 | 266 | 3.2 | 9.7 | 0.00 | 0.00 | 0.00 | 58 | 1037.9 |
| 20260509085416 | 15 | 189 | 3.2 | 9.7 | 0.00 | 0.00 | 0.00 | 58 | 1037.9 |
| 20260509084910 | 15 | 143 | 3.2 | 9.7 | 0.00 | 0.00 | 0.00 | 58 | 1037.9 |
| 20260509084405 | 15 | 239 | 1.6 | 8.0 | 0.00 | 0.00 | 0.00 | 58 | 1037.9 |
| 20260509083858 | 15 | 153 | 1.6 | 8.0 | 0.00 | 0.00 | 0.00 | 58 | 1037.9 |
| 20260509083354 | 15 | 208 | 1.6 | 11.3 | 0.00 | 0.00 | 0.00 | 58 | 1038.0 |
| 20260509082841 | 15 | 232 | 1.6 | 11.3 | 0.00 | 0.00 | 0.00 | 58 | 1038.0 |
| 20260509082341 | 15 | 199 | 3.2 | 11.3 | 0.00 | 0.00 | 0.00 | 59 | 1038.0 |
| 20260509081834 | 15 | 169 | 3.2 | 16.1 | 0.00 | 0.00 | 0.00 | 59 | 1038.1 |
| 20260509081329 | 15 | 180 | 1.6 | 16.1 | 0.00 | 0.00 | 0.00 | 60 | 1038.1 |
| 20260509080818 | 15 | 155 | 1.6 | 6.4 | 0.00 | 0.00 | 0.00 | 60 | 1038.1 |
| 20260509080316 | 15 | 265 | 1.6 | 6.4 | 0.00 | 0.00 | 0.00 | 60 | 1038.1 |
| 20260509075810 | 15 | 250 | 1.6 | 6.4 | 0.00 | 0.00 | 0.00 | 60 | 1038.1 |
| 20260509075300 | 15 | 267 | 3.2 | 12.9 | 0.00 | 0.00 | 0.00 | 60 | 1038.1 |
| 20260509075024 | 15 | 239 | 1.6 | 12.9 | 0.00 | 0.00 | 0.00 | 59 | 1038.1 |
| 20260509074252 | 15 | 228 | 1.6 | 14.5 | 0.00 | 0.00 | 0.00 | 60 | 1038.1 |
| 20260509073746 | 15 | 223 | 3.2 | 14.5 | 0.00 | 0.00 | 0.00 | 60 | 1038.1 |
| 20260509073457 | 15 | 227 | 1.6 | 9.7 | 0.00 | 0.00 | 0.00 | 61 | 1038.1 |
| 20260509072734 | 15 | 252 | 1.6 | 6.4 | 0.00 | 0.00 | 0.00 | 61 | 1038.1 |
| 20260509072228 | 14 | 214 | 1.6 | 4.8 | 0.00 | 0.00 | 0.00 | 62 | 1038.1 |
| 20260509071718 | 14 | 233 | 0.0 | 3.2 | 0.00 | 0.00 | 0.00 | 62 | 1038.3 |
| 20260509071215 | 14 | 290 | 0.0 | 3.2 | 0.00 | 0.00 | 0.00 | 63 | 1038.3 |
| 20260509070712 | 14 | 209 | 0.0 | 3.2 | 0.00 | 0.00 | 0.00 | 64 | 1038.3 |
| 20260509070204 | 14 | 240 | 0.0 | 4.8 | 0.00 | 0.00 | 0.00 | 64 | 1038.5 |
| 20260509065657 | 14 | 240 | 1.6 | 4.8 | 0.00 | 0.00 | 0.00 | 64 | 1038.5 |
| 20260509065152 | 14 | 267 | 1.6 | 4.8 | 0.00 | 0.00 | 0.00 | 64 | 1038.5 |
| 20260509064646 | 14 | 115 | 1.6 | 4.8 | 0.00 | 0.00 | 0.00 | 65 | 1038.6 |
| 20260509064142 | 14 | 196 | 0.0 | 6.4 | 0.00 | 0.00 | 0.00 | 65 | 1038.6 |
| 20260509063640 | 14 | 233 | 0.0 | 6.4 | 0.00 | 0.00 | 0.00 | 65 | 1038.6 |
| 20260509063138 | 14 | 128 | 0.0 | 4.8 | 0.00 | 0.00 | 0.00 | 66 | 1038.6 |
| 20260509062638 | 13 | 229 | 0.0 | 4.8 | 0.00 | 0.00 | 0.00 | 66 | 1038.6 |
| 20260509062141 | 13 | 278 | 0.0 | 4.8 | 0.00 | 0.00 | 0.00 | 67 | 1038.6 |
| 20260509061636 | 13 | 211 | 0.0 | 3.2 | 0.00 | 0.00 | 0.00 | 68 | 1038.8 |
| 20260509061357 | 13 | 255 | 0.0 | 1.6 | 0.00 | 0.00 | 0.00 | 70 | 1038.8 |
| 20260509060632 | 13 | 246 | 0.0 | 0.0 | 0.00 | 0.00 | 0.00 | 71 | 1038.8 |
| 20260509060129 | 13 | 245 | 0.0 | 1.6 | 0.00 | 0.00 | 0.00 | 72 | 1038.8 |
| 20260509055628 | 12 | 245 | 0.0 | 6.4 | 0.00 | 0.00 | 0.00 | 72 | 1038.8 |
| 20260509055125 | 12 | 242 | 0.0 | 6.4 | 0.00 | 0.00 | 0.00 | 75 | 1038.8 |
| 20260509054624 | 11 | 263 | 0.0 | 4.8 | 0.00 | 0.00 | 0.00 | 76 | 1038.8 |
| 20260509054121 | 11 | 250 | 0.0 | 4.8 | 0.00 | 0.00 | 0.00 | 80 | 1038.8 |
| 20260509053620 | 10 | 263 | 0.0 | 1.6 | 0.00 | 0.00 | 0.00 | 84 | 1038.8 |
| 20260509053120 | 10 | 70 | 0.0 | 0.0 | 0.00 | 0.00 | 0.00 | 88 | 1038.9 |
| 20260509052618 | 9 | 70 | 0.0 | 0.0 | 0.00 | 0.00 | 0.00 | 91 | 1038.9 |
| 20260509052117 | 9 | 70 | 0.0 | 0.0 | 0.00 | 0.00 | 0.00 | 91 | 1038.9 |
| 20260509051618 | 9 | 70 | 0.0 | 0.0 | 0.00 | 0.00 | 0.00 | 90 | 1038.8 |
| 20260509051343 | 8 | 70 | 0.0 | 0.0 | 0.00 | 0.00 | 0.00 | 91 | 1038.8 |
| 20260509050619 | 8 | 70 | 0.0 | 0.0 | 0.00 | 0.00 | 0.00 | 91 | 1038.7 |
| 20260509050113 | 8 | 70 | 0.0 | 0.0 | 0.00 | 0.00 | 0.00 | 90 | 1038.7 |
| 20260509045602 | 8 | 70 | 0.0 | 0.0 | 0.00 | 0.00 | 0.00 | 90 | 1038.7 |
| 20260509045100 | 8 | 70 | 0.0 | 0.0 | 0.00 | 0.00 | 0.00 | 90 | 1038.9 |
| 20260509044600 | 8 | 70 | 0.0 | 0.0 | 0.00 | 0.00 | 0.00 | 90 | 1038.9 |
| 20260509044100 | 8 | 70 | 0.0 | 0.0 | 0.00 | 0.00 | 0.00 | 90 | 1038.9 |
| 20260509043559 | 8 | 70 | 0.0 | 0.0 | 0.00 | 0.00 | 0.00 | 90 | 1038.9 |
| 20260509043059 | 8 | 70 | 0.0 | 0.0 | 0.00 | 0.00 | 0.00 | 90 | 1038.9 |
| 20260509042600 | 8 | 70 | 0.0 | 0.0 | 0.00 | 0.00 | 0.00 | 89 | 1038.9 |
| 20260509042103 | 8 | 70 | 0.0 | 0.0 | 0.00 | 0.00 | 0.00 | 89 | 1039.0 |
| 20260509041829 | 8 | 70 | 0.0 | 0.0 | 0.00 | 0.00 | 0.00 | 89 | 1039.0 |
| 20260509041059 | 8 | 70 | 0.0 | 0.0 | 0.00 | 0.00 | 0.00 | 89 | 1039.0 |
| 20260509040545 | 8 | 70 | 0.0 | 0.0 | 0.00 | 0.00 | 0.00 | 89 | 1039.1 |
| 20260509040044 | 8 | 70 | 0.0 | 0.0 | 0.00 | 0.00 | 0.00 | 88 | 1039.1 |
| 20260509035813 | 8 | 70 | 0.0 | 0.0 | 0.00 | 0.00 | 0.00 | 88 | 1039.1 |
| 20260509035044 | 8 | 70 | 0.0 | 0.0 | 0.00 | 0.00 | 0.00 | 88 | 1039.2 |
| 20260509034544 | 8 | 70 | 0.0 | 0.0 | 0.00 | 0.00 | 0.00 | 87 | 1039.2 |
| 20260509034044 | 9 | 70 | 0.0 | 0.0 | 0.00 | 0.00 | 0.00 | 87 | 1039.2 |
| 20260509033544 | 9 | 70 | 0.0 | 0.0 | 0.00 | 0.00 | 0.00 | 87 | 1039.2 |
| 20260509033047 | 9 | 70 | 0.0 | 0.0 | 0.00 | 0.00 | 0.00 | 85 | 1039.2 |
| 20260509032547 | 9 | 70 | 0.0 | 0.0 | 0.00 | 0.00 | 0.00 | 83 | 1039.2 |
| 20260509032041 | 10 | 70 | 0.0 | 0.0 | 0.00 | 0.00 | 0.00 | 84 | 1039.2 |
| 20260509031529 | 10 | 70 | 0.0 | 0.0 | 0.00 | 0.00 | 0.00 | 83 | 1039.2 |
| 20260509031021 | 10 | 70 | 0.0 | 0.0 | 0.00 | 0.00 | 0.00 | 82 | 1039.2 |
| 20260509030508 | 10 | 70 | 0.0 | 0.0 | 0.00 | 0.00 | 0.00 | 82 | 1039.3 |
| 20260509030008 | 10 | 70 | 0.0 | 0.0 | 0.00 | 0.00 | 0.00 | 82 | 1039.3 |
| 20260509025453 | 10 | 70 | 0.0 | 0.0 | 0.00 | 0.00 | 0.00 | 82 | 1039.3 |
| 20260509024956 | 11 | 70 | 0.0 | 0.0 | 0.00 | 0.00 | 0.00 | 80 | 1039.5 |
| 20260509024449 | 11 | 70 | 0.0 | 0.0 | 0.00 | 0.00 | 0.00 | 80 | 1039.5 |
| 20260509023944 | 11 | 70 | 0.0 | 0.0 | 0.00 | 0.00 | 0.00 | 81 | 1039.5 |
| 20260509023437 | 11 | 70 | 0.0 | 0.0 | 0.00 | 0.00 | 0.00 | 82 | 1039.7 |
| 20260509023152 | 11 | 70 | 0.0 | 0.0 | 0.00 | 0.00 | 0.00 | 82 | 1039.7 |
| 20260509022417 | 11 | 70 | 0.0 | 0.0 | 0.00 | 0.00 | 0.00 | 82 | 1039.7 |
| 20260509021921 | 11 | 70 | 0.0 | 0.0 | 0.00 | 0.00 | 0.00 | 82 | 1039.7 |
| 20260509021413 | 11 | 70 | 0.0 | 0.0 | 0.00 | 0.00 | 0.00 | 82 | 1039.7 |
| 20260509020909 | 11 | 70 | 0.0 | 0.0 | 0.00 | 0.00 | 0.00 | 82 | 1039.7 |
| 20260509020401 | 11 | 70 | 0.0 | 0.0 | 0.00 | 0.00 | 0.00 | 82 | 1039.7 |
| 20260509015857 | 11 | 70 | 0.0 | 0.0 | 0.00 | 0.00 | 0.00 | 82 | 1039.7 |
| 20260509015340 | 11 | 70 | 0.0 | 0.0 | 0.00 | 0.00 | 0.00 | 81 | 1039.7 |
| 20260509015110 | 11 | 70 | 0.0 | 0.0 | 0.00 | 0.00 | 0.00 | 81 | 1039.4 |
| 20260509014336 | 11 | 70 | 0.0 | 0.0 | 0.00 | 0.00 | 0.00 | 80 | 1039.4 |
| 20260509013832 | 11 | 70 | 0.0 | 0.0 | 0.00 | 0.00 | 0.00 | 80 | 1039.4 |
| 20260509013317 | 12 | 70 | 0.0 | 0.0 | 0.00 | 0.00 | 0.00 | 80 | 1039.4 |
| 20260509012818 | 12 | 70 | 0.0 | 0.0 | 0.00 | 0.00 | 0.00 | 79 | 1039.4 |
| 20260509012312 | 12 | 70 | 0.0 | 0.0 | 0.00 | 0.00 | 0.00 | 78 | 1039.4 |
| 20260509011759 | 12 | 70 | 0.0 | 0.0 | 0.00 | 0.00 | 0.00 | 76 | 1039.2 |
| 20260509011301 | 12 | 70 | 0.0 | 0.0 | 0.00 | 0.00 | 0.00 | 73 | 1039.2 |
| 20260509010755 | 13 | 70 | 0.0 | 0.0 | 0.00 | 0.00 | 0.00 | 72 | 1039.2 |
| 20260509010249 | 13 | 70 | 0.0 | 0.0 | 0.00 | 0.00 | 0.00 | 74 | 1039.2 |
| 20260509005742 | 13 | 70 | 0.0 | 0.0 | 0.00 | 0.00 | 0.00 | 73 | 1039.2 |
| 20260509005236 | 14 | 70 | 0.0 | 0.0 | 0.00 | 0.00 | 0.00 | 72 | 1039.2 |
| 20260509004953 | 14 | 70 | 0.0 | 0.0 | 0.00 | 0.00 | 0.00 | 72 | 1039.2 |
| 20260509004216 | 15 | 70 | 0.0 | 0.0 | 0.00 | 0.00 | 0.00 | 70 | 1039.2 |
| 20260509003718 | 15 | 71 | 0.0 | 0.0 | 0.00 | 0.00 | 0.00 | 70 | 1039.2 |
| 20260509003205 | 15 | 70 | 0.0 | 0.0 | 0.00 | 0.00 | 0.00 | 69 | 1039.1 |
| 20260509002201 | 16 | 70 | 0.0 | 0.0 | 0.00 | 0.00 | 0.00 | 69 | 1039.1 |
| 20260509001654 | 16 | 70 | 0.0 | 0.0 | 0.00 | 0.00 | 0.00 | 67 | 1039.1 |
| 20260509001149 | 16 | 70 | 0.0 | 0.0 | 0.00 | 0.00 | 0.00 | 67 | 1039.1 |
| 20260509000634 | 16 | 70 | 0.0 | 0.0 | 0.00 | 0.00 | 0.00 | 66 | 1039.1 |
| 20260509000136 | 17 | 70 | 0.0 | 0.0 | 0.00 | 0.00 | 0.00 | 64 | 1038.8 |
| 20260508235630 | 17 | 71 | 0.0 | 0.0 | 0.00 | 0.00 | 0.00 | 60 | 1038.8 |
| 20260508235117 | 17 | 70 | 0.0 | 0.0 | 0.00 | 0.00 | 0.00 | 59 | 1038.7 |
| 20260508234618 | 17 | 70 | 0.0 | 0.0 | 0.00 | 0.00 | 0.00 | 60 | 1038.7 |
| 20260508234113 | 18 | 70 | 0.0 | 0.0 | 0.00 | 0.00 | 0.00 | 59 | 1038.7 |
| 20260508233606 | 18 | 70 | 0.0 | 0.0 | 0.00 | 0.00 | 0.00 | 60 | 1038.6 |
| 20260508233054 | 18 | 248 | 0.0 | 0.0 | 0.00 | 0.00 | 0.00 | 59 | 1038.6 |
| 20260508232554 | 18 | 248 | 0.0 | 0.0 | 0.00 | 0.00 | 0.00 | 56 | 1038.6 |
| 20260508232050 | 18 | 248 | 0.0 | 0.0 | 0.00 | 0.00 | 0.00 | 54 | 1038.6 |
| 20260508231542 | 18 | 248 | 0.0 | 0.0 | 0.00 | 0.00 | 0.00 | 53 | 1038.6 |
| 20260508231037 | 18 | 248 | 0.0 | 0.0 | 0.00 | 0.00 | 0.00 | 53 | 1038.6 |
| 20260508230751 | 19 | 248 | 0.0 | 0.0 | 0.00 | 0.00 | 0.00 | 51 | 1038.6 |
| 20260508230250 | 19 | 248 | 0.0 | 0.0 | 0.00 | 0.00 | 0.00 | 50 | 1038.6 |
| 20260508225510 | 20 | 248 | 0.0 | 4.8 | 0.00 | 0.00 | 0.00 | 46 | 1038.6 |
| 20260508225013 | 20 | 247 | 1.6 | 4.8 | 0.00 | 0.00 | 0.00 | 43 | 1038.6 |
| 20260508224459 | 20 | 270 | 1.6 | 8.0 | 0.00 | 0.00 | 0.00 | 41 | 1038.6 |
| 20260508224000 | 21 | 268 | 1.6 | 8.0 | 0.00 | 0.00 | 0.00 | 41 | 1038.6 |
| 20260508223455 | 21 | 274 | 1.6 | 8.0 | 0.00 | 0.00 | 0.00 | 43 | 1038.6 |
| 20260508222948 | 21 | 241 | 0.0 | 6.4 | 0.00 | 0.00 | 0.00 | 43 | 1038.6 |
| 20260508222443 | 20 | 225 | 1.6 | 6.4 | 0.00 | 0.00 | 0.00 | 48 | 1038.6 |
| 20260508221932 | 20 | 237 | 1.6 | 4.8 | 0.00 | 0.00 | 0.00 | 43 | 1038.6 |
| 20260508221430 | 21 | 84 | 0.0 | 4.8 | 0.00 | 0.00 | 0.00 | 43 | 1038.6 |
| 20260508221146 | 21 | 256 | 1.6 | 8.0 | 0.00 | 0.00 | 0.00 | 39 | 1038.6 |
| 20260508220418 | 21 | 232 | 1.6 | 8.0 | 0.00 | 0.00 | 0.00 | 39 | 1038.6 |
| 20260508215912 | 21 | 263 | 1.6 | 6.4 | 0.00 | 0.00 | 0.00 | 44 | 1038.6 |
| 20260508215406 | 21 | 259 | 1.6 | 6.4 | 0.00 | 0.00 | 0.00 | 41 | 1038.6 |
| 20260508214900 | 21 | 287 | 1.6 | 8.0 | 0.00 | 0.00 | 0.00 | 41 | 1038.7 |
| 20260508214350 | 21 | 255 | 3.2 | 9.7 | 0.00 | 0.00 | 0.00 | 42 | 1038.7 |
| 20260508213848 | 21 | 275 | 3.2 | 9.7 | 0.00 | 0.00 | 0.00 | 41 | 1038.7 |
| 20260508213343 | 21 | 224 | 1.6 | 11.3 | 0.00 | 0.00 | 0.00 | 41 | 1038.8 |
| 20260508212835 | 21 | 257 | 1.6 | 11.3 | 0.00 | 0.00 | 0.00 | 44 | 1038.8 |
| 20260508212330 | 20 | 28 | 1.6 | 8.0 | 0.00 | 0.00 | 0.00 | 42 | 1038.8 |
| 20260508211824 | 20 | 58 | 1.6 | 12.9 | 0.00 | 0.00 | 0.00 | 44 | 1039.0 |
| 20260508211318 | 20 | 198 | 1.6 | 12.9 | 0.00 | 0.00 | 0.00 | 42 | 1039.0 |
| 20260508210804 | 20 | 240 | 3.2 | 12.9 | 0.00 | 0.00 | 0.00 | 43 | 1039.0 |
| 20260508210306 | 20 | 269 | 4.8 | 12.9 | 0.00 | 0.00 | 0.00 | 41 | 1038.9 |
| 20260508210019 | 20 | 315 | 4.8 | 12.9 | 0.00 | 0.00 | 0.00 | 40 | 1038.9 |
| 20260508205254 | 20 | 147 | 4.8 | 12.9 | 0.00 | 0.00 | 0.00 | 41 | 1038.9 |
| 20260508204742 | 20 | 266 | 3.2 | 12.9 | 0.00 | 0.00 | 0.00 | 42 | 1039.1 |
| 20260508204728 | 20 | 253 | 3.2 | 9.7 | 0.00 | 0.00 | 0.00 | 42 | 1039.1 |
| 20260508203954 | 20 | 274 | 3.2 | 9.7 | 0.00 | 0.00 | 0.00 | 42 | 1039.1 |
| 20260508203437 | 20 | 242 | 3.2 | 16.1 | 0.00 | 0.00 | 0.00 | 42 | 1039.1 |
| 20260508202710 | 20 | 215 | 4.8 | 16.1 | 0.00 | 0.00 | 0.00 | 40 | 1039.1 |
| 20260508202156 | 20 | 253 | 6.4 | 22.5 | 0.00 | 0.00 | 0.00 | 40 | 1039.1 |
| 20260508201907 | 20 | 239 | 6.4 | 22.5 | 0.00 | 0.00 | 0.00 | 40 | 1039.2 |
| 20260508201135 | 20 | 237 | 3.2 | 12.9 | 0.00 | 0.00 | 0.00 | 42 | 1039.2 |
| 20260508200900 | 20 | 241 | 4.8 | 16.1 | 0.00 | 0.00 | 0.00 | 41 | 1039.2 |
| 20260508200131 | 20 | 261 | 4.8 | 16.1 | 0.00 | 0.00 | 0.00 | 41 | 1039.3 |
| 20260508195621 | 20 | 137 | 1.6 | 8.0 | 0.00 | 0.00 | 0.00 | 40 | 1039.3 |
| 20260508195119 | 20 | 250 | 3.2 | 9.7 | 0.00 | 0.00 | 0.00 | 40 | 1039.5 |
| 20260508194614 | 20 | 269 | 3.2 | 14.5 | 0.00 | 0.00 | 0.00 | 38 | 1039.5 |
| 20260508194327 | 20 | 218 | 3.2 | 14.5 | 0.00 | 0.00 | 0.00 | 39 | 1039.5 |
| 20260508193557 | 20 | 138 | 4.8 | 14.5 | 0.00 | 0.00 | 0.00 | 37 | 1039.7 |
| 20260508193055 | 21 | 207 | 6.4 | 14.5 | 0.00 | 0.00 | 0.00 | 38 | 1039.7 |
| 20260508192550 | 21 | 275 | 6.4 | 16.1 | 0.00 | 0.00 | 0.00 | 38 | 1039.7 |
| 20260508192043 | 21 | 218 | 4.8 | 16.1 | 0.00 | 0.00 | 0.00 | 39 | 1039.8 |
| 20260508191537 | 21 | 202 | 4.8 | 16.1 | 0.00 | 0.00 | 0.00 | 39 | 1039.8 |
| 20260508191028 | 21 | 253 | 6.4 | 16.1 | 0.00 | 0.00 | 0.00 | 38 | 1039.8 |
| 20260508190520 | 21 | 232 | 6.4 | 16.1 | 0.00 | 0.00 | 0.00 | 40 | 1040.3 |
| 20260508190246 | 21 | 269 | 8.0 | 16.1 | 0.00 | 0.00 | 0.00 | 39 | 1040.3 |
| 20260508185513 | 21 | 254 | 6.4 | 16.1 | 0.00 | 0.00 | 0.00 | 37 | 1040.3 |
| 20260508185009 | 21 | 212 | 4.8 | 17.7 | 0.00 | 0.00 | 0.00 | 37 | 1040.3 |
| 20260508184502 | 21 | 248 | 4.8 | 17.7 | 0.00 | 0.00 | 0.00 | 40 | 1040.3 |
| 20260508183955 | 21 | 256 | 4.8 | 12.9 | 0.00 | 0.00 | 0.00 | 40 | 1040.3 |
| 20260508183445 | 21 | 153 | 6.4 | 14.5 | 0.00 | 0.00 | 0.00 | 40 | 1040.6 |
| 20260508182943 | 20 | 138 | 6.4 | 17.7 | 0.00 | 0.00 | 0.00 | 37 | 1040.6 |
| 20260508182437 | 20 | 77 | 6.4 | 19.3 | 0.00 | 0.00 | 0.00 | 39 | 1040.6 |
| 20260508181931 | 20 | 120 | 6.4 | 22.5 | 0.00 | 0.00 | 0.00 | 41 | 1040.7 |
| 20260508181425 | 20 | 109 | 6.4 | 22.5 | 0.00 | 0.00 | 0.00 | 40 | 1040.7 |
| 20260508180919 | 20 | 117 | 6.4 | 16.1 | 0.00 | 0.00 | 0.00 | 39 | 1040.7 |
| 20260508180413 | 20 | 274 | 8.0 | 24.1 | 0.00 | 0.00 | 0.00 | 42 | 1040.8 |
| 20260508175907 | 19 | 269 | 8.0 | 24.1 | 0.00 | 0.00 | 0.00 | 41 | 1040.8 |
| 20260508175401 | 19 | 207 | 4.8 | 17.7 | 0.00 | 0.00 | 0.00 | 42 | 1040.8 |
| 20260508174848 | 19 | 301 | 4.8 | 11.3 | 0.00 | 0.00 | 0.00 | 39 | 1041.1 |
| 20260508174826 | 19 | 263 | 4.8 | 14.5 | 0.00 | 0.00 | 0.00 | 46 | 1041.1 |